Location: Morlupo
(42.1333°N, 12.5000°E)
Time: 16:43:20
(UTC+00:00)

Cosmos 372 Rocket - Pass Details

Date: 18 September 2020
Orbit: 739 x 767 km, 74.1° (Epoch: 25 October)

Event Time Altitude Azimuth Distance (km) Brightness Sun altitude
Rises 18:41:57 0° 199° (SSW) 3,221 7.2 -16.9°
Reaches altitude 10° 18:44:18 10° 199° (SSW) 2,298 6.5 -17.3°
Maximum altitude 18:49:32 87° 290° (WNW) 772 4.0 -18.2°
Drops below altitude 10° 18:54:47 10° 19° (NNE) 2,305 6.5 -19.1°
Sets 18:57:10 0° 20° (NNE) 3,231 7.3 -19.5°
